[[{"header":{"parameterUnit":"m.s-1","parameterCategory":1,"la1":30.2991,"la2":30.254,"lo1":-89.0895,"lo2":-89.0444,"dy":0.0017,"dx":0.0017,"nx":28,"ny":28,"refTime":"2024-08-24T21:00:00:Z","depth":0,"parameterNumber":2,"parameterNumberName":"U-component_of_WINDS"},"data":[0,0,0,0,0,0,0,0,0,0,0,0,0,0,0,0,0,0,0,0,0,0,0,0,0,0,0,0,0,0,0,0,0,0,0,0,0,0,0,0,0,0,0,0,0,0,0,0,0,0,0,0,0,0,0,0,0,0,-0.5145,-0.5144,0,-0.5132,-0.5132,-0.5131,-0.5054,-0.5052,-0.505,-0.5048,-0.5038,-0.504,-0.5041,0,0,0,0,0,0,0,0,0,0,0,0,0,-0.5104,-0.5105,-0.5145,-0.5144,-0.5144,-0.5132,-0.5132,-0.5131,-0.5054,-0.5052,-0.5049,-0.5047,-0.5038,-0.504,-0.5041,0,0,0,0,0,0,0,0,0,0,0,0,0,-0.511,-0.5106,-0.5145,-0.5104,-0.51,-0.5132,-0.5132,-0.5131,-0.5054,-0.5051,-0.5049,-0.5046,-0.5037,-0.5039,-0.5042,-0.5112,0,0,-0.5049,-0.505,0,0,0,0,0,0,0,0,-0.5109,-0.5111,-0.511,-0.5107,-0.5103,-0.5091,-0.5114,-0.5125,-0.5055,-0.5072,-0.5048,-0.5045,-0.5058,-0.5059,-0.5063,-0.5112,-0.5112,-0.5049,-0.505,-0.5051,-0.5052,0,0,0,0,0,0,0,-0.5109,-0.5111,-0.5139,-0.511,-0.5106,-0.5087,-0.5085,-0.5115,-0.5081,-0.507,-0.5064,-0.5064,-0.5056,-0.5061,-0.5062,-0.5111,-0.5049,-0.5051,-0.5052,-0.5053,-0.5217,-0.522,0,0,0,0,0,0,-0.5114,-0.5111,-0.514,-0.5139,-0.5099,-0.509,-0.5087,-0.5098,-0.5081,-0.5075,-0.5066,-0.506,-0.5058,-0.5059,-0.5061,-0.5142,-0.5051,-0.5053,-0.5055,-0.5214,-0.5217,-0.5221,0,0,0,0,0,0,-0.5113,-0.5117,-0.514,-0.5124,-0.5125,-0.5094,-0.5106,-0.5099,-0.5104,-0.5078,-0.5072,-0.5077,-0.5056,-0.5058,-0.51,-0.5141,-0.5054,-0.5056,-0.521,-0.5215,-0.5219,-0.5306,0,0,0,0,0,0,-0.5113,-0.5118,-0.5144,-0.5125,-0.5126,-0.5179,-0.5109,-0.5101,-0.5107,-0.5099,-0.5087,-0.5082,-0.5054,-0.5097,-0.5102,-0.5143,-0.5058,-0.5206,-0.5212,-0.5218,-0.5299,-0.5313,-0.5325,0,0,0,0,0,-0.5111,-0.517,-0.5146,-0.5149,-0.5158,-0.5181,-0.5182,-0.5148,-0.5111,-0.5137,-0.512,-0.5082,-0.5135,-0.5102,-0.5107,-0.5149,-0.5204,-0.5211,-0.5217,-0.5294,-0.531,-0.5324,0,0,0,0,0,0,-0.5197,-0.5167,-0.514,-0.5193,-0.519,-0.5168,-0.5201,-0.5167,-0.5176,-0.5168,-0.5126,-0.5124,-0.5172,-0.5164,-0.5127,-0.5216,-0.5163,-0.5171,-0.5219,-0.5235,-0.5247,-0.5249,-0.506,0,0,0,0,0,-0.5221,-0.5241,-0.5215,-0.5265,-0.5264,-0.5233,-0.5242,-0.5215,-0.5211,-0.521,-0.5196,-0.5194,-0.521,-0.5222,-0.5235,-0.5297,-0.5293,-0.5329,-0.5341,-0.5352,-0.536,-0.5391,-0.5407,-0.5243,-0.5243,-0.5243,0,0,-0.5273,-0.5259,-0.5275,-0.5281,-0.5276,-0.5299,-0.5233,-0.526,-0.5276,-0.5214,-0.5252,-0.5242,-0.5237,-0.5289,-0.5311,-0.5284,-0.5404,-0.536,-0.5369,-0.5371,-0.54,-0.5415,-0.5429,-0.5247,-0.5247,-0.5246,0,0,-0.5379,-0.5371,-0.5411,-0.5406,-0.5398,-0.5376,-0.5386,-0.5369,-0.5359,-0.5396,-0.535,-0.5369,-0.5398,-0.5396,-0.5399,-0.5502,-0.5467,-0.5507,-0.5574,-0.5605,-0.5618,-0.5629,-0.5666,-0.568,-0.5515,-0.5515,-0.5516,0,-0.5446,-0.5477,-0.5437,-0.5466,-0.547,-0.5413,-0.5454,-0.5452,-0.5449,-0.5454,-0.5423,-0.5456,-0.5449,-0.55,-0.5525,-0.5529,-0.5539,-0.551,-0.5619,-0.563,-0.564,-0.5675,-0.5689,-0.552,-0.552,-0.5519,-0.5519,0,-0.5558,-0.558,-0.5614,-0.5611,-0.5619,-0.5654,-0.562,-0.5632,-0.5605,-0.5587,-0.5625,-0.5614,-0.5623,-0.5633,-0.5607,-0.568,-0.5663,-0.5627,-0.5573,-0.5661,-0.5693,-0.5706,-0.5528,-0.5526,-0.5524,-0.5523,0,0,-0.572,-0.5692,-0.5706,-0.5703,-0.5689,-0.5705,-0.5738,-0.5745,-0.5757,-0.5757,-0.5783,-0.5808,-0.5773,-0.5776,-0.5749,-0.5777,-0.5859,-0.5737,-0.5736,-0.576,-0.5938,-0.5966,-0.5982,-0.5835,-0.5837,-0.5839,-0.5939,0,-0.5822,-0.5874,-0.5838,-0.5897,-0.5917,-0.5862,-0.589,-0.5885,-0.5868,-0.5883,-0.5864,-0.5883,-0.5836,-0.5837,-0.5861,-0.5844,-0.5894,-0.5836,-0.586,-0.5861,-0.5864,-0.5999,-0.6029,-0.6124,-0.5951,-0.5953,-0.5954,0,-0.5949,-0.5952,-0.6012,-0.5992,-0.5999,-0.6025,-0.6029,-0.6043,-0.6036,-0.6022,-0.6024,-0.599,-0.602,-0.5966,-0.6008,-0.5969,-0.5976,-0.5969,-0.5972,-0.5974,-0.5914,-0.6005,-0.6153,-0.6168,-0.5974,-0.5972,-0.5971,0,-0.6061,-0.608,-0.6118,-0.6118,-0.6096,-0.6115,-0.6107,-0.6096,-0.6103,-0.6106,-0.611,-0.6118,-0.6122,-0.6129,-0.6097,-0.6061,-0.6143,-0.6087,-0.6133,-0.6134,-0.6154,-0.6153,-0.6306,-0.6158,-0.6157,-0.6157,-0.6157,0,-0.6179,-0.6219,-0.6168,-0.6192,-0.6234,-0.6192,-0.6235,-0.6221,-0.6212,-0.6233,-0.6186,-0.6206,-0.6163,-0.6179,-0.6154,-0.6192,-0.6195,-0.6185,-0.6178,-0.6189,-0.6191,-0.6195,-0.6188,-0.6161,-0.616,-0.6159,-0.6159,0,-0.6313,-0.6281,-0.6319,-0.6293,-0.6288,-0.632,-0.6299,-0.632,-0.6299,-0.6326,-0.6329,-0.6297,-0.6313,-0.6282,-0.6295,-0.6278,-0.6332,-0.6314,-0.6334,-0.6329,-0.6378,-0.6374,-0.6539,-0.6558,-0.6397,-0.6398,-0.64,0,-0.6391,-0.6419,-0.6396,-0.6406,-0.64,-0.6416,-0.6422,-0.6381,-0.6389,-0.6382,-0.6404,-0.6416,-0.6423,-0.6452,-0.643,-0.6439,-0.6422,-0.6479,-0.6423,-0.6434,-0.6424,-0.6423,-0.6425,-0.6491,-0.6493,-0.6495,-0.6496,0,-0.6533,-0.6515,-0.6525,-0.6528,-0.6536,-0.6537,-0.6536,-0.6546,-0.6503,-0.6514,-0.6529,-0.6535,-0.6547,-0.6559,-0.6563,-0.6555,-0.6519,-0.6513,-0.6525,-0.6537,-0.6548,-0.6543,-0.6366,-0.651,-0.6509,-0.6508,-0.6507,-0.6506,-0.6641,-0.6664,-0.6651,-0.6663,-0.6656,-0.6655,-0.6673,-0.6653,-0.6665,-0.667,-0.6645,-0.6666,-0.6657,-0.6657,-0.6653,-0.6669,-0.6644,-0.666,-0.6664,-0.6669,-0.6677,-0.6544,-0.667,-0.6669,-0.6669,-0.6668,-0.6668,0,-0.6782,-0.677,-0.6781,-0.6778,-0.6788,-0.675,-0.6746,-0.6756,-0.6775,-0.6768,-0.6776,-0.6793,-0.6804,-0.6782,-0.679,-0.6807,-0.6791,-0.6811,-0.681,-0.6809,-0.6699,-0.6689,-0.6824,-0.6824,-0.6824,-0.6824,-0.6824,-0.6824,-0.6856,-0.6891,-0.6871,-0.6903,-0.6891,-0.691,-0.691,-0.6909,-0.6903,-0.6924,-0.6933,-0.6917,-0.6905,-0.6911,-0.692,-0.6913,-0.6919,-0.6945,-0.6933,-0.6831,-0.6816,-0.6802,-0.6792,-0.6946,-0.6946,-0.704,-0.7041,-0.7042]},{"header":{"parameterUnit":"m.s-1","parameterCategory":1,"la1":30.2991,"la2":30.254,"lo1":-89.0895,"lo2":-89.0444,"dy":0.0017,"dx":0.0017,"nx":28,"ny":28,"refTime":"2024-08-24T21:00:00:Z","depth":0,"parameterNumber":3,"parameterNumberName":"V-component_of_WINDS"},"data":[0,0,0,0,0,0,0,0,0,0,0,0,0,0,0,0,0,0,0,0,0,0,0,0,0,0,0,0,0,0,0,0,0,0,0,0,0,0,0,0,0,0,0,0,0,0,0,0,0,0,0,0,0,0,0,0,0,0,-2.268,-2.2681,0,-2.2767,-2.2768,-2.2769,-2.2784,-2.2783,-2.2783,-2.2782,-2.287,-2.2873,-2.2876,0,0,0,0,0,0,0,0,0,0,0,0,0,-2.2524,-2.2527,-2.268,-2.2681,-2.2682,-2.2767,-2.2769,-2.277,-2.2784,-2.2783,-2.2782,-2.2782,-2.2869,-2.2873,-2.2877,0,0,0,0,0,0,0,0,0,0,0,0,0,-2.26,-2.2528,-2.268,-2.27,-2.2702,-2.2767,-2.2769,-2.277,-2.2784,-2.2783,-2.2782,-2.2781,-2.2868,-2.2873,-2.2877,-2.2928,0,0,-2.2891,-2.2893,0,0,0,0,0,0,0,0,-2.2595,-2.2605,-2.2696,-2.2698,-2.2701,-2.2764,-2.2746,-2.2823,-2.2785,-2.2753,-2.2782,-2.2781,-2.2836,-2.2843,-2.2862,-2.2932,-2.2936,-2.2891,-2.2894,-2.2896,-2.2897,0,0,0,0,0,0,0,-2.259,-2.2602,-2.2714,-2.2697,-2.27,-2.2704,-2.2713,-2.2761,-2.28,-2.2756,-2.2757,-2.2767,-2.2837,-2.2857,-2.2864,-2.2937,-2.2891,-2.2895,-2.2898,-2.29,-2.3052,-2.3054,0,0,0,0,0,0,-2.2581,-2.2597,-2.2712,-2.2717,-2.2645,-2.2708,-2.2718,-2.2745,-2.2799,-2.2806,-2.2768,-2.2768,-2.285,-2.2859,-2.2867,-2.2929,-2.2896,-2.29,-2.2903,-2.3051,-2.3053,-2.3054,0,0,0,0,0,0,-2.2578,-2.2591,-2.2708,-2.2658,-2.2673,-2.2711,-2.2741,-2.2747,-2.2767,-2.2809,-2.2815,-2.2782,-2.2849,-2.2861,-2.2912,-2.2932,-2.2902,-2.2907,-2.305,-2.3052,-2.3053,-2.3054,0,0,0,0,0,0,-2.2573,-2.259,-2.261,-2.2658,-2.2675,-2.2752,-2.2743,-2.275,-2.2775,-2.2776,-2.2823,-2.283,-2.2849,-2.2906,-2.2917,-2.2938,-2.291,-2.3048,-2.3051,-2.3053,-2.3053,-2.3056,-2.3059,0,0,0,0,0,-2.2568,-2.2607,-2.2611,-2.2625,-2.2701,-2.2754,-2.2763,-2.2786,-2.2777,-2.2797,-2.2823,-2.2828,-2.2929,-2.2911,-2.2924,-2.2947,-2.3047,-2.305,-2.3053,-2.3051,-2.3055,-2.3059,0,0,0,0,0,0,-2.256,-2.2613,-2.2619,-2.2674,-2.2709,-2.2756,-2.2782,-2.2789,-2.2827,-2.2826,-2.2851,-2.2862,-2.2912,-2.2935,-2.2914,-2.2998,-2.2987,-2.2993,-2.2981,-2.2986,-2.2989,-2.2982,-2.2914,0,0,0,0,0,-2.2564,-2.2603,-2.2648,-2.2692,-2.271,-2.2743,-2.2766,-2.2781,-2.2818,-2.2832,-2.2863,-2.2898,-2.2938,-2.2963,-2.3002,-2.3056,-2.3066,-2.3079,-2.3082,-2.3084,-2.3088,-2.3118,-2.3124,-2.3064,-2.3064,-2.3064,0,0,-2.2574,-2.2608,-2.2631,-2.2691,-2.272,-2.2759,-2.2755,-2.2796,-2.2825,-2.2839,-2.2889,-2.2913,-2.2954,-2.3007,-2.3032,-2.3028,-2.3107,-2.3088,-2.3089,-2.3092,-2.3122,-2.3127,-2.3132,-2.3066,-2.3065,-2.3065,0,0,-2.2612,-2.2642,-2.2682,-2.2711,-2.2755,-2.2777,-2.2787,-2.2833,-2.2849,-2.29,-2.2911,-2.2946,-2.3013,-2.3042,-2.3066,-2.3115,-2.312,-2.3127,-2.3143,-2.3171,-2.3176,-2.318,-2.3197,-2.3203,-2.3131,-2.3131,-2.3131,0,-2.2618,-2.2678,-2.2702,-2.2743,-2.2769,-2.2783,-2.2824,-2.2851,-2.2905,-2.2922,-2.2917,-2.3002,-2.3031,-2.309,-2.3102,-2.3121,-2.3133,-2.3121,-2.3174,-2.3178,-2.3182,-2.3198,-2.3205,-2.3132,-2.3131,-2.3131,-2.3131,0,-2.2683,-2.2724,-2.2751,-2.2803,-2.2833,-2.2873,-2.2903,-2.2929,-2.2941,-2.2964,-2.3015,-2.3051,-2.3097,-2.3112,-2.3124,-2.3174,-2.3169,-2.3169,-2.3157,-2.3188,-2.3204,-2.321,-2.3132,-2.3132,-2.3132,-2.3132,0,0,-2.2717,-2.2782,-2.2792,-2.2815,-2.2865,-2.2897,-2.2938,-2.2984,-2.3005,-2.3043,-2.3077,-2.3134,-2.3134,-2.316,-2.3176,-2.3201,-2.3237,-2.3197,-2.3198,-2.3202,-2.3292,-2.3292,-2.3299,-2.3241,-2.3243,-2.3244,-2.3289,0,-2.276,-2.2834,-2.2856,-2.2918,-2.2956,-2.297,-2.3006,-2.304,-2.3062,-2.3097,-2.3122,-2.3162,-2.3158,-2.3175,-2.32,-2.3227,-2.3255,-2.3224,-2.3273,-2.3274,-2.326,-2.3307,-2.3307,-2.3347,-2.3295,-2.3296,-2.3297,0,-2.2819,-2.2857,-2.2923,-2.2967,-2.2984,-2.3016,-2.3059,-2.3093,-2.3131,-2.3146,-2.3176,-2.3189,-2.3232,-2.322,-2.3279,-2.3257,-2.3279,-2.3295,-2.3297,-2.3301,-2.3286,-2.3311,-2.3361,-2.3366,-2.3307,-2.3306,-2.3305,0,-2.2836,-2.2904,-2.2951,-2.2971,-2.3025,-2.3047,-2.307,-2.3108,-2.3134,-2.3172,-2.3188,-2.3231,-2.3254,-2.3286,-2.331,-2.3299,-2.3367,-2.3357,-2.3379,-2.3378,-2.3392,-2.339,-2.3444,-2.3408,-2.3407,-2.3407,-2.3407,0,-2.288,-2.2919,-2.2959,-2.2989,-2.3033,-2.3059,-2.3102,-2.3126,-2.316,-2.3193,-2.3209,-2.324,-2.3271,-2.3306,-2.3326,-2.3371,-2.3382,-2.3394,-2.3398,-2.3392,-2.339,-2.3405,-2.3403,-2.3409,-2.3409,-2.3408,-2.3408,0,-2.2905,-2.2934,-2.2987,-2.3034,-2.3046,-2.3077,-2.3117,-2.3145,-2.3168,-2.3211,-2.3222,-2.3258,-2.3301,-2.3329,-2.3383,-2.3396,-2.3445,-2.3449,-2.3432,-2.3434,-2.3454,-2.3451,-2.3519,-2.3528,-2.3486,-2.3487,-2.3487,0,-2.2931,-2.2962,-2.3012,-2.3036,-2.3059,-2.3098,-2.3124,-2.3151,-2.3178,-2.3224,-2.3247,-2.3291,-2.3327,-2.3394,-2.3425,-2.3466,-2.3471,-2.3492,-2.3477,-2.3469,-2.347,-2.3467,-2.347,-2.3493,-2.3494,-2.3494,-2.3494,0,-2.2973,-2.2986,-2.3024,-2.3066,-2.3098,-2.3132,-2.3167,-2.3186,-2.3219,-2.3248,-2.3292,-2.332,-2.3375,-2.3418,-2.3462,-2.3486,-2.3495,-2.3499,-2.3506,-2.3499,-2.3487,-2.3493,-2.3437,-2.3497,-2.3497,-2.3496,-2.3496,-2.3496,-2.2999,-2.3027,-2.3066,-2.3107,-2.3136,-2.3169,-2.3198,-2.3225,-2.3262,-2.3309,-2.3323,-2.3368,-2.3406,-2.3467,-2.3492,-2.3527,-2.3525,-2.3535,-2.3538,-2.354,-2.3539,-2.3482,-2.3535,-2.3535,-2.3535,-2.3535,-2.3535,0,-2.3041,-2.3067,-2.3105,-2.3153,-2.3186,-2.3193,-2.3232,-2.3258,-2.3298,-2.3333,-2.3368,-2.3418,-2.346,-2.3494,-2.3537,-2.3559,-2.3564,-2.3569,-2.3567,-2.3572,-2.354,-2.3528,-2.3564,-2.3564,-2.3564,-2.3564,-2.3564,-2.3564,-2.3067,-2.3113,-2.3131,-2.3192,-2.3218,-2.3263,-2.3284,-2.3314,-2.3342,-2.3397,-2.3432,-2.3454,-2.3489,-2.3535,-2.3573,-2.3582,-2.3597,-2.36,-2.361,-2.3578,-2.3575,-2.3572,-2.3561,-2.3604,-2.3604,-2.364,-2.364,-2.3641]}]]